USA 271

Last updated on Tue Sep 02 2025 00:02:48 GMT+0000 (Coordinated Universal Time)

1 41745U 16052B 25244.33063777 -.00000233 00000+0 00000+0 0 9995 2 41745 3.4290 80.8827 0001373 165.5401 314.0849 0.99870007 25028
UTC large
Height (km)
Speed (km/s)
/
Latitude / Longitude
Inclination (degrees)
Orbital Period (minutes)
Azimuth
Elevation
Range (km)
Doppler Factor

Next 0 passes for location: London (51.5072 / 0.1276)

Sorry there are no passes over London.